SONATE-2
1 59112U 24043Q   26235.18008488  .00042584  00000-0  45492-3 0  9996
2 59112  97.5591  29.9791 0004749 314.4901  45.5969 15.63793371138341
GRBBeta
1 60237U 24128C   26235.30921261  .00003413  00000-0  23840-3 0  9998
2 60237  61.9918 340.6930 0031197 149.4091 210.8830 15.07053559116389
Curium One
1 60242U 24128H   26235.51750288  .00006811  00000-0  38793-3 0  9994
2 60242  61.9799 327.1424 0030072 145.1501 215.1572 15.13379670116642
ROBUSTA-3A
1 60243U 24128J   26235.25679720  .00006418  00000-0  37489-3 0  9991
2 60243  61.9879 330.9172 0032096 142.0302 218.3066 15.12494110116567
CatSat
1 60246U 24125J   26235.04408835  .00084506  00000-0  77136-3 0  9992
2 60246  97.2015  88.8226 0014447 290.0243  69.9462 15.67469257117836
HYPERVIEW-1G (RS66S)
1 61772U 24199AP  26230.11543498  .07890463  24672-5  93922-3 0  9997
2 61772  97.2456 114.2453 0006603 245.8477 114.2131 16.36574258144515
AO-123
1 61781U 24199AY  26235.58623147  .00007259  00000-0  20500-3 0  9995
2 61781  97.2902 103.6557 0015294  69.6812 290.6075 15.36549458144271
LASARsat
1 62391U 24247Q   26235.45734830  .00034913  00000-0  60218-3 0  9992
2 62391  44.9715 243.0248 0008006  41.3262 318.8234 15.50445924 93749
CroCube
1 62394U 24247T   26235.35906192  .00041109  00000-0  64528-3 0  9999
2 62394  44.9686 239.6311 0008124  50.5412 309.6198 15.53009612 93774
JINJUSat 1B
1 63210U 25052A   26235.50778978  .00015509  00000-0  45242-3 0  9995
2 63210  97.3905 132.4160 0003042 158.7996 201.3374 15.35433092 80427
NUSHSAT 1
1 63211U 25052B   26235.17171990  .00018043  00000-0  47784-3 0  9999
2 63211  97.3880 132.8999 0002652 155.7534 204.3836 15.38414746 80430
TEVEL2-4
1 63213U 25052D   26234.70844697  .00017147  00000-0  47900-3 0  9994
2 63213  97.3801 131.2825 0001670 162.0503 198.0800 15.36771259 80323
TEVEL2-5
1 63214U 25052E   26235.58377920  .00017757  00000-0  49877-3 0  9994
2 63214  97.3801 132.0880 0001643 161.6633 198.4671 15.36592311 80457
TEVEL2-6
1 63215U 25052F   26235.14178852  .00016718  00000-0  47054-3 0  9991
2 63215  97.3802 131.6295 0001483 160.2396 199.8906 15.36541722 80385
TEVEL2-1
1 63217U 25052H   26234.67461860  .00016613  00000-0  47710-3 0  9997
2 63217  97.3774 130.7017 0000916 187.6734 172.4496 15.35914378 80297
TEVEL2-3
1 63218U 25052J   26235.44826496  .00016417  00000-0  47005-3 0  9993
2 63218  97.3780 131.5089 0000932 170.6222 189.5039 15.36010345 80413
TEVEL2-2
1 63219U 25052K   26235.52137632  .00017088  00000-0  49001-3 0  9993
2 63219  97.3779 131.5538 0001071 187.6337 172.4890 15.35954711 80421
TEVEL2-9
1 63237U 25052AD  26235.52419767  .00015577  00000-0  47838-3 0  9992
2 63237  97.3841 130.7774 0003709 257.7225 102.3603 15.33803600 80342
TEVEL2-7
1 63238U 25052AE  26235.51388802  .00015154  00000-0  47057-3 0  9991
2 63238  97.3840 130.6525 0003641 257.9226 102.1608 15.33456949 80335
TEVEL2-8
1 63239U 25052AF  26234.67442317  .00014363  00000-0  44669-3 0  9997
2 63239  97.3835 129.7892 0003673 265.6828  94.3995 15.33420771 80206
SPIRONE
1 66657U 25274H   26235.24568117  .00001378  00000-0  13517-3 0  9991
2 66657  97.7469 163.5857 0012733 144.5569 215.6500 14.93774603 40231
K-HERO
1 66660U 25274L   26235.23202701  .00001642  00000-0  15840-3 0  9993
2 66660  97.7477 163.7819 0014542 149.3330 210.8743 14.94172908 40241
SNUGLITE-III DURI
1 66661U 25274M   26235.55344812  .00001643  00000-0  15847-3 0  9997
2 66661  97.7473 164.1198 0015219 149.6622 210.5482 14.94187309 40295
SAKHACUBE-CHOLBON
1 67290U 25313AU  26234.74122538  .00008532  00000-0  33450-3 0  9993
2 67290  97.3890 308.9782 0010616 117.9439 242.2876 15.25955575 36129
RS95S (QMR-KWT-2)
1 67291U 25313AV  26235.57438274  .00012950  00000-0  47762-3 0  9993
2 67291  97.3888 310.1421 0010193 113.9059 246.3249 15.27871851 36277
Ten-Koh2
1 68261U 25241B   26234.75996923  .00007256  00000-0  30323-3 0  9998
2 68261  51.6637   2.6025 0006440   2.6793 357.4219 15.24622203 25060
JACK-002
1 68417U 26067B   26235.45140564  .00005471  00000-0  25628-3 0  9997
2 68417  97.4621 193.2668 0003747  65.3464 294.8161 15.20115020 22160
DISCO 2
1 68431U 26067R   26235.61446296  .00007151  00000-0  33538-3 0  9998
2 68431  97.4652 193.4228 0004130 103.2280 256.9416 15.19966752 22187
HADES-SA (SpinnyONE)
1 68446U 26067AG  26234.83742461  .00016669  00000-0  75105-3 0  9990
2 68446  97.4444 192.2538 0005806 179.3528 180.7716 15.21109519 22059
PARUS-6U1
1 68456U 26067AS  26235.30021944  .00004829  00000-0  23988-3 0  9997
2 68456  97.4606 192.6822 0005465 170.2123 189.9218 15.18126905 22111
SAL-E
1 68458U 26067AU  26235.34549275  .00006239  00000-0  30470-3 0  9996
2 68458  97.4529 192.6329 0005293 178.5087 181.6164 15.18604494 22122
FSI-SAT 2
1 68792U 26088A   26235.34530747  .00003612  00000-0  24309-3 0  9990
2 68792  97.5156  22.9753 0012986 233.9177 126.0849 15.07285365 18408
OrigamiSat 2
1 68795U 26088D   26235.38267478  .00010368  00000-0  63909-3 0  9990
2 68795  97.5138  23.3851 0014484 203.3039 156.7536 15.10053413 18435
ARICA 2
1 68796U 26088E   26235.34932800  .00004005  00000-0  25750-3 0  9998
2 68796  97.5147  23.2610 0014911 203.0856 156.9704 15.08881765 18421
WASEDA-SAT-ZERO-II
1 68797U 26088F   26235.39741749  .00004806  00000-0  30489-3 0  9998
2 68797  97.5141  23.3457 0014734 201.9443 158.1157 15.09284259 18431
MANGARO-II-Piscus
1 68798U 26088G   26235.45333486  .00002706  00000-0  17367-3 0  9998
2 68798  97.5150  23.4413 0018212 206.3730 153.6573 15.09184344 18445
CO-128
1 69912U 26156AV  26235.52565090  .00001277  00000-0  13508-3 0  9994
2 69912  97.7506 135.1425 0002773  20.5623 339.5706 14.90890767  7035
MARINA
1 69920U 26156BD  26235.15342546  .00001936  00000-0  19603-3 0  9995
2 69920  97.7474 134.8434 0007774  11.5792 348.5604 14.92084912  6986
IO-86
1 40931U          26199.45381863  .00000000  00000-0  77536-4 0    07
2 40931   6.0006 322.6653 0012733 338.8432 273.6875 14.79294310    03
LILIUM-4                
1 71922C 26067AC  26089.50133053 -.00014632  00000+0 -74472-3 0    04
2 71922  97.4497  49.1617 0004341   5.9603 355.7042 15.16896692    16
